SCP
0 0 0 0 0 0 0 0 0 0 0 0 0 0 0 0 0 0 0 0 0 0 0 0 0 0 0 0 0 0 0 0 0 0 0 0 0 0 0 0 0 0 0
0 0 0 0 0 0 0 0 0 0 0 0 0 0 0 0 0 0 0 0 0 0 0 0 0 0 0 0 0 0 0 0 0 0 0 0 0 0 0 0 0 0 0
0 0 0 0 0 0 0 0 0 0 0 0 0 0 0 0 0 0 0 0 0 0 0 0 0 0 0 0 0 0 0 0 0 0 0 0 0 0 0 0 0 0 0
0 0 0 0 0 0 0 0 0 0 0 0 0 0 0 0 0 0 0 0 0 0 0 0 0 0 0 0 0 0 0 0 0 0 0 0 0 0 0 0 0 0 0
0 0 0 0 0 0 0 0 0 0 0 0 0 0 0 0 0 0 0 0 0 0 0 0 0 0 0 0 0 0 0 0 0 0 0 0 0 0 0 0 0 0 0
0 0 0 0 0 0 0 0 0 0 0 0 0 0 0 0 0 0 0 0 0 0 0 0 0 0 0 0 0 0 0 0 0 0 0 0 0 0 0 0 0 0 -0
0 0 0 0 0 0 0 0 0 0 0 0 0 0 0 0 0 0 0 0 0 0 0 0 0 0 0 0 0 0 0 0 0 0 0 0 0 0 0 0 0 0 0
0 0 0 0 0 0 0 0 0 0 0 0 0 0 0 0 0 0 0 0 0 0 0 0 0 0 0 0 0 0 0 0 0 0 0 0 0 0 0 0 0 0 0
0 0 0 0 0 0 0 0 0 0 0 0 0 0 0 0 0 0 0 0 0 0 0 0 0 0 0 0 0 0 0 0 0 0 0 0 0 0 0 0 0 0 0
0 0 0 0 0 0 0 0 0 0 0 0 0 0 0 0 0 0 0 0 0 0 0 0 0 0 0 0 0 0 0 0 0 0 0 0 0 0 0 0 0 0 0
0 0 0 0 0 0 0 0 0 0 0 0 0 0 0 0 0 0 0 0 0 0 0 0 0 0 0 0 0 0 0 0 0 0 0 0 0 0 0 0 0 0 0
0 0 0 0 0 0 0 0 0 0 0 0 0 0 0 0 0 0 0 0 0 0 0 0 0 0 0 0 0 0 0 0 0 0 0 0 0 0 0 0 0 0 0
0 0 0 0 0 0 0 0 0 0 0 0 0 0 0 0 0 0 0 0 0 0 0 0 0 0 0 0 0 0 0 0 0 0 0 0 0 0 0 0 0 0 0
0 0 0 0 0 0 0 0 0 0 0 0 0 0 0 0 0 0 0 0 0 0 0 0 0 0 0 0 0 0 0 0 0 0 0 0 0 0 0 0 0 0 0
0 0 0 0 0 0 0 0 0 0 0 0 0 0 0 0 0 0 0 0 0 0 0 0 0 0 0 0 0 0 0 0 0 0 0 0 0 0 0 0 0 0 0
0 0 0 0 0 0 0 0 0 0 0 0 0 0 0 0 0 0 0 0 0 0 0 0 0 0 0 0 0 0 0 0 0 0 0 0 0 0 0 0 0 0 0
0 0 0 0 0 0 0 0 0 0 0 0 0 0 0 0 0 0 0 0 0 0 0 0 0 0 0 0 0 0 0 0 0 0 0 0 0 0 0 0 0 0 0
0 0 0 0 0 0 0 0 0 0 0 0 0 0 0 0 0 0 0 0 0 0 0 0 0 0 0 0 0 0 0 0 0 0 0 0 0 0 0 0 0 0 0
0 0 0 0 0 0 0 0 0 0 0 0 0 0 0 0 0 0 0 0 0 0 0 0 0 0 0 0 0 0 0 0 0 0 0 0 0 0 0 0 0 0 0
0 0 0 0 0 0 0 0 0 0 0 0 0 0 0 0 0 0 0 0 0 0 0 0 0 0 0 0 0 0 0 0 0 0 0 0 0 0 0 0 0 0 0
0 0 0 0 0 0 0 0 0 0 0 0 0 0 0 0 0 0 0 0 0 0 0 0 0 0 0 0 0 0 0 0 0 0 0 0 0 0 0 0 0 0 0
0 0 0 0 0 0 0 0 0 0 0 0 0 0 0 0 0 0 0 0 0 0 0 0 0 0 0 0 0 0 0 0 0 0 0 0 0 0 0 0 0 0 0
0 0 0 0 0 0 0 0 0 0 0 0 0 0 0 0 0 0 0 0 0 0 0 0 0 0 0 0 0 0 0 0 0 0 0 0 0 0 0 0 0 0 0
0 0 0 0 0 0 0 0 0 0 0 0 0 0 0 0 0 0 0 0 0 0 0 0 0 0 0 0 0 0 0 0 0 0 0 0 0 0 0 0 0 0 0
0 0 0 0 0 0 0 0 0 0 0 0 0 0 0 0 0 0 0 0 0 0 0 0 0 0 0 0 0 0 0 0 0 0 0 0 0 0 0 0 0 0 0
0 0 0 0 0 0 0 0 0 0 0 0 0 0 0 0 0 0 0 0 0 0 0 0 0 0 0 0 0 0 0 0 0 0 0 0 0 0 0 0 0 0 0
Wind_Speed_500mb
28 30 30 30 29 28 27 26 25 23 22 21 20 20 21 22 23 23 23 25 26 28 29 31 32 33 35 37 35 35 31 35 39 38 36 45 52 56 59 61 60 60 62
31 30 28 27 25 23 21 19 17 16 15 15 16 16 16 16 17 18 19 20 21 23 24 25 27 28 29 30 30 30 31 31 36 42 43 44 46 52 59 60 63 66 68
26 25 25 23 21 18 16 14 12 11 10 9 9 10 10 11 12 14 16 18 19 20 21 22 23 24 26 26 27 27 29 30 32 37 43 43 45 50 60 61 66 72 74
22 21 19 18 17 14 12 10 7 6 4 4 5 7 9 10 12 13 14 16 17 18 21 23 25 26 28 27 30 32 34 36 37 39 42 44 46 53 61 70 77 76 81
18 18 17 15 13 11 9 6 4 2 3 5 7 10 11 12 12 13 14 16 17 19 20 23 23 25 28 29 29 32 33 34 36 39 41 44 50 58 63 68 74 80 82
13 11 10 8 6 4 1 1 3 5 7 9 11 14 17 17 16 17 18 20 20 20 21 23 25 24 25 27 28 28 29 28 30 33 34 40 45 51 58 64 70 77 84
7 5 4 4 4 5 6 8 9 10 11 13 15 17 19 21 21 20 20 20 20 19 19 20 21 20 22 23 24 24 26 27 28 29 33 38 45 50 57 62 63 66 71
3 2 2 4 6 8 10 13 14 15 16 16 17 17 18 18 19 18 18 18 19 18 17 15 15 15 20 20 20 19 21 23 25 28 33 37 40 45 49 54 60 65 69
4 6 8 10 12 14 15 15 16 16 18 19 20 19 19 19 18 15 14 15 16 16 14 13 13 14 19 19 20 20 22 24 27 30 34 38 41 44 46 54 58 67 79
8 9 10 12 13 14 15 15 16 16 17 17 17 16 17 18 18 17 14 13 13 13 13 13 13 15 19 19 20 23 26 30 34 36 38 40 42 43 44 46 51 61 67
12 13 13 14 14 14 14 14 14 14 14 14 13 13 13 12 12 11 12 11 11 12 13 15 16 20 19 20 24 26 30 35 36 40 42 43 45 47 49 51 51 54 60
14 13 12 13 14 15 15 15 14 13 13 12 12 12 12 12 13 13 16 17 17 15 17 19 20 25 24 24 27 29 32 35 39 41 44 46 50 53 54 54 55 55 56
14 14 15 15 15 15 13 12 12 11 11 10 10 11 12 14 17 18 21 23 25 22 24 27 27 28 29 29 31 32 34 36 39 42 45 48 52 56 59 60 62 64 68
18 17 17 17 16 15 14 14 13 12 11 11 12 13 14 16 18 20 23 26 29 26 28 30 33 32 32 36 34 34 35 37 38 42 47 51 55 59 62 64 70 73 78
20 19 19 18 18 16 15 14 13 12 12 12 13 15 17 18 21 23 26 28 31 31 37 39 38 37 38 39 39 37 36 38 41 43 47 53 57 60 63 66 69 72 74
23 21 20 18 16 14 13 11 9 7 6 7 9 13 17 20 23 27 30 33 34 34 38 39 40 40 44 42 42 42 40 41 42 45 48 51 57 61 67 69 70 71 75
26 22 20 18 16 14 12 10 8 7 7 9 13 18 22 25 29 31 33 34 34 33 36 40 41 43 45 45 45 46 45 43 44 44 47 52 56 61 67 72 72 72 75
26 22 21 19 18 15 13 11 9 8 9 12 17 20 25 28 33 35 36 37 34 35 38 41 43 45 46 48 48 49 48 46 46 46 47 50 54 61 68 71 73 75 77
25 24 23 22 19 17 14 12 12 12 12 15 18 24 29 32 36 37 36 36 36 37 40 43 45 47 48 49 49 49 49 48 46 46 46 51 55 63 69 72 75 75 77
29 28 25 23 20 19 18 16 16 16 16 17 19 23 27 31 31 31 32 32 35 38 41 44 46 47 48 50 51 50 49 48 46 46 49 54 58 64 69 74 75 77 81
31 28 25 24 23 22 21 20 22 22 23 24 24 26 31 35 34 33 32 33 37 39 41 44 46 47 48 50 51 50 50 48 46 48 50 55 60 68 71 73 74 77 82
31 30 28 28 28 27 27 27 27 27 27 29 29 30 33 36 38 39 39 41 44 46 47 49 49 50 51 52 53 55 54 52 48 50 54 57 63 68 71 72 76 80 83
35 35 34 35 35 34 34 33 33 33 33 34 36 37 38 39 40 41 43 45 47 49 51 52 53 53 52 54 55 55 55 51 49 50 56 59 64 69 69 73 76 80 84
39 40 41 41 40 40 41 40 39 39 40 42 43 44 46 47 47 47 48 48 49 52 54 55 55 55 54 55 56 55 54 50 49 49 55 60 65 69 69 73 75 79 85
44 45 47 46 47 48 49 48 48 48 50 50 51 51 52 54 55 55 55 55 55 55 55 57 57 56 56 56 55 54 51 48 48 47 54 58 64 67 67 72 75 83 87
49 51 52 53 55 55 55 56 57 57 59 59 59 59 60 62 62 62 62 62 62 61 59 58 58 56 56 55 55 53 50 46 45 43 53 57 64 68 71 74 74 76 77
Wind_Direction_500mb
156 163 175 182 187 185 189 194 198 201 204 209 218 229 236 240 245 251 255 259 262 262 262 263 264 265 269 269 271 272 272 273 278 277 268 270 276 276 282 285 292 295 296
131 138 144 149 154 160 167 175 183 195 205 214 222 232 242 252 257 262 264 265 268 268 271 274 276 276 277 279 280 282 283 286 288 291 296 295 293 293 294 296 297 299 299
127 132 135 141 145 150 157 164 174 184 197 209 223 237 254 266 276 280 281 280 280 281 282 282 284 287 288 291 292 294 296 298 299 301 303 305 305 304 301 303 303 303 303
126 126 128 129 131 135 139 146 155 168 191 225 253 268 274 280 284 285 285 288 292 294 296 298 299 300 302 304 304 307 307 309 309 308 309 311 310 306 311 313 311 313 313
119 117 118 118 118 120 123 131 144 190 254 269 275 278 283 287 291 289 288 288 289 290 292 295 297 301 303 304 306 308 309 309 311 312 312 313 317 321 325 326 323 323 321
122 118 112 113 108 105 109 243 255 270 277 281 285 289 292 294 296 295 294 292 292 291 296 300 302 306 309 313 320 324 326 330 329 331 329 329 328 329 328 330 331 331 331
154 161 185 216 234 244 255 260 265 271 277 281 285 288 293 300 303 304 303 299 297 297 298 299 305 310 312 319 328 334 338 341 343 343 340 337 333 335 332 329 331 328 326
205 228 252 281 290 295 290 287 285 280 275 276 277 280 285 294 298 302 300 302 301 301 304 308 310 311 318 324 331 337 341 341 344 345 341 338 337 336 335 331 330 328 328
247 273 284 285 285 288 288 287 285 285 288 288 289 290 291 296 305 304 298 300 302 301 302 303 306 307 321 323 333 337 339 339 340 343 341 338 338 338 335 331 333 331 330
237 253 266 272 275 276 278 279 281 282 282 283 286 290 293 296 302 306 302 300 302 307 310 312 309 307 317 322 332 336 335 335 336 336 336 336 334 332 332 331 331 327 327
238 245 252 259 264 268 269 270 269 266 264 264 266 271 273 281 292 300 298 310 311 309 304 307 307 306 313 320 325 327 327 327 328 328 330 331 332 333 331 329 328 323 320
226 234 243 252 257 258 258 257 256 254 254 258 264 272 282 291 299 301 302 304 311 309 305 304 302 302 303 304 307 310 314 318 320 323 327 330 330 329 328 326 324 322 319
237 240 241 241 240 236 233 233 235 240 244 253 265 275 284 292 297 303 306 306 308 304 298 297 296 298 296 295 299 303 307 311 315 321 325 328 328 327 327 326 327 327 324
232 233 232 230 225 221 221 224 228 233 242 255 267 277 284 289 291 293 295 298 299 301 296 298 300 299 298 301 303 301 303 308 314 319 323 324 326 329 329 329 327 328 325
233 230 225 221 217 221 227 233 239 246 255 270 279 286 291 294 296 298 298 298 301 304 303 307 305 303 301 302 301 302 305 309 314 314 319 323 327 329 329 328 326 325 322
227 221 218 217 220 229 235 236 236 234 244 268 290 301 304 308 310 310 310 309 309 310 302 304 303 303 302 302 304 306 306 306 306 312 317 322 327 327 326 327 327 325 323
220 216 216 220 223 219 219 227 242 263 288 308 317 316 314 314 312 310 308 306 309 309 305 305 307 306 303 306 304 303 304 304 305 310 316 324 324 323 324 326 327 325 323
214 213 216 214 210 214 222 232 245 262 289 305 308 308 307 311 310 309 309 307 309 309 309 308 307 308 309 307 305 303 304 305 306 310 313 318 321 323 324 325 326 325 324
213 213 211 211 215 219 225 238 254 272 289 299 305 308 310 313 311 308 305 305 308 310 310 310 310 309 308 308 306 302 301 301 302 303 310 316 321 325 325 325 324 325 324
214 212 213 217 221 224 232 243 257 271 286 296 304 309 313 317 319 315 311 307 306 307 308 308 310 310 309 308 306 301 298 298 301 304 310 316 320 321 323 324 324 323 323
216 217 221 224 228 234 245 254 265 277 287 296 304 311 317 323 326 320 312 306 305 306 308 308 310 312 310 305 304 302 300 300 302 305 308 313 319 321 323 322 321 322 323
221 225 227 231 235 241 247 255 264 273 282 290 298 306 311 316 319 320 317 315 313 313 312 312 312 310 309 308 309 308 305 303 303 303 307 311 315 319 321 320 320 323 323
226 229 232 236 240 246 251 257 264 272 281 289 296 301 304 308 313 318 320 316 312 310 309 308 309 310 311 310 306 304 302 301 298 298 303 307 313 319 320 320 321 323 323
233 236 239 242 246 251 255 260 266 271 277 283 289 294 299 304 308 312 313 314 313 310 307 307 308 310 308 307 305 304 301 297 293 296 301 306 313 319 319 320 322 323 321
239 241 244 247 251 255 258 263 269 274 279 282 287 291 296 300 303 305 306 307 308 309 308 306 306 307 306 305 305 303 298 293 292 295 302 304 310 317 320 321 323 325 325
245 247 250 252 256 260 265 269 272 275 279 282 286 290 293 295 297 299 301 302 303 304 307 306 304 304 304 303 305 302 296 291 289 293 301 306 315 321 324 321 318 320 317
Wind_Speed_850mb
28 30 30 30 29 28 27 26 25 23 22 21 20 20 21 22 23 23 23 25 26 28 29 31 32 33 35 37 35 35 31 35 39 38 36 45 52 56 59 61 60 60 62
31 30 28 27 25 23 21 19 17 16 15 15 16 16 16 16 17 18 19 20 21 23 24 25 27 28 29 30 30 30 31 31 36 42 43 44 46 52 59 60 63 66 68
26 25 25 23 21 18 16 14 12 11 10 9 9 10 10 11 12 14 16 18 19 20 21 22 23 24 26 26 27 27 29 30 32 37 43 43 45 50 60 61 66 72 74
22 21 19 18 17 14 12 10 7 6 4 4 5 7 9 10 12 13 14 16 17 18 21 23 25 26 28 27 30 32 34 36 37 39 42 44 46 53 61 70 77 76 81
18 18 17 15 13 11 9 6 4 2 3 5 7 10 11 12 12 13 14 16 17 19 20 23 23 25 28 29 29 32 33 34 36 39 41 44 50 58 63 68 74 80 82
13 11 10 8 6 4 1 1 3 5 7 9 11 14 17 17 16 17 18 20 20 20 21 23 25 24 25 27 28 28 29 28 30 33 34 40 45 51 58 64 70 77 84
7 5 4 4 4 5 6 8 9 10 11 13 15 17 19 21 21 20 20 20 20 19 19 20 21 20 22 23 24 24 26 27 28 29 33 38 45 50 57 62 63 66 71
3 2 2 4 6 8 10 13 14 15 16 16 17 17 18 18 19 18 18 18 19 18 17 15 15 15 20 20 20 19 21 23 25 28 33 37 40 45 49 54 60 65 69
4 6 8 10 12 14 15 15 16 16 18 19 20 19 19 19 18 15 14 15 16 16 14 13 13 14 19 19 20 20 22 24 27 30 34 38 41 44 46 54 58 67 79
8 9 10 12 13 14 15 15 16 16 17 17 17 16 17 18 18 17 14 13 13 13 13 13 13 15 19 19 20 23 26 30 34 36 38 40 42 43 44 46 51 61 67
12 13 13 14 14 14 14 14 14 14 14 14 13 13 13 12 12 11 12 11 11 12 13 15 16 20 19 20 24 26 30 35 36 40 42 43 45 47 49 51 51 54 60
14 13 12 13 14 15 15 15 14 13 13 12 12 12 12 12 13 13 16 17 17 15 17 19 20 25 24 24 27 29 32 35 39 41 44 46 50 53 54 54 55 55 56
14 14 15 15 15 15 13 12 12 11 11 10 10 11 12 14 17 18 21 23 25 22 24 27 27 28 29 29 31 32 34 36 39 42 45 48 52 56 59 60 62 64 68
18 17 17 17 16 15 14 14 13 12 11 11 12 13 14 16 18 20 23 26 29 26 28 30 33 32 32 36 34 34 35 37 38 42 47 51 55 59 62 64 70 73 78
20 19 19 18 18 16 15 14 13 12 12 12 13 15 17 18 21 23 26 28 31 31 37 39 38 37 38 39 39 37 36 38 41 43 47 53 57 60 63 66 69 72 74
23 21 20 18 16 14 13 11 9 7 6 7 9 13 17 20 23 27 30 33 34 34 38 39 40 40 44 42 42 42 40 41 42 45 48 51 57 61 67 69 70 71 75
26 22 20 18 16 14 12 10 8 7 7 9 13 18 22 25 29 31 33 34 34 33 36 40 41 43 45 45 45 46 45 43 44 44 47 52 56 61 67 72 72 72 75
26 22 21 19 18 15 13 11 9 8 9 12 17 20 25 28 33 35 36 37 34 35 38 41 43 45 46 48 48 49 48 46 46 46 47 50 54 61 68 71 73 75 77
25 24 23 22 19 17 14 12 12 12 12 15 18 24 29 32 36 37 36 36 36 37 40 43 45 47 48 49 49 49 49 48 46 46 46 51 55 63 69 72 75 75 77
29 28 25 23 20 19 18 16 16 16 16 17 19 23 27 31 31 31 32 32 35 38 41 44 46 47 48 50 51 50 49 48 46 46 49 54 58 64 69 74 75 77 81
31 28 25 24 23 22 21 20 22 22 23 24 24 26 31 35 34 33 32 33 37 39 41 44 46 47 48 50 51 50 50 48 46 48 50 55 60 68 71 73 74 77 82
31 30 28 28 28 27 27 27 27 27 27 29 29 30 33 36 38 39 39 41 44 46 47 49 49 50 51 52 53 55 54 52 48 50 54 57 63 68 71 72 76 80 83
35 35 34 35 35 34 34 33 33 33 33 34 36 37 38 39 40 41 43 45 47 49 51 52 53 53 52 54 55 55 55 51 49 50 56 59 64 69 69 73 76 80 84
39 40 41 41 40 40 41 40 39 39 40 42 43 44 46 47 47 47 48 48 49 52 54 55 55 55 54 55 56 55 54 50 49 49 55 60 65 69 69 73 75 79 85
44 45 47 46 47 48 49 48 48 48 50 50 51 51 52 54 55 55 55 55 55 55 55 57 57 56 56 56 55 54 51 48 48 47 54 58 64 67 67 72 75 83 87
49 51 52 53 55 55 55 56 57 57 59 59 59 59 60 62 62 62 62 62 62 61 59 58 58 56 56 55 55 53 50 46 45 43 53 57 64 68 71 74 74 76 77
Wind_Direction_850mb
156 163 175 182 187 185 189 194 198 201 204 209 218 229 236 240 245 251 255 259 262 262 262 263 264 265 269 269 271 272 272 273 278 277 268 270 276 276 282 285 292 295 296
131 138 144 149 154 160 167 175 183 195 205 214 222 232 242 252 257 262 264 265 268 268 271 274 276 276 277 279 280 282 283 286 288 291 296 295 293 293 294 296 297 299 299
127 132 135 141 145 150 157 164 174 184 197 209 223 237 254 266 276 280 281 280 280 281 282 282 284 287 288 291 292 294 296 298 299 301 303 305 305 304 301 303 303 303 303
126 126 128 129 131 135 139 146 155 168 191 225 253 268 274 280 284 285 285 288 292 294 296 298 299 300 302 304 304 307 307 309 309 308 309 311 310 306 311 313 311 313 313
119 117 118 118 118 120 123 131 144 190 254 269 275 278 283 287 291 289 288 288 289 290 292 295 297 301 303 304 306 308 309 309 311 312 312 313 317 321 325 326 323 323 321
122 118 112 113 108 105 109 243 255 270 277 281 285 289 292 294 296 295 294 292 292 291 296 300 302 306 309 313 320 324 326 330 329 331 329 329 328 329 328 330 331 331 331
154 161 185 216 234 244 255 260 265 271 277 281 285 288 293 300 303 304 303 299 297 297 298 299 305 310 312 319 328 334 338 341 343 343 340 337 333 335 332 329 331 328 326
205 228 252 281 290 295 290 287 285 280 275 276 277 280 285 294 298 302 300 302 301 301 304 308 310 311 318 324 331 337 341 341 344 345 341 338 337 336 335 331 330 328 328
247 273 284 285 285 288 288 287 285 285 288 288 289 290 291 296 305 304 298 300 302 301 302 303 306 307 321 323 333 337 339 339 340 343 341 338 338 338 335 331 333 331 330
237 253 266 272 275 276 278 279 281 282 282 283 286 290 293 296 302 306 302 300 302 307 310 312 309 307 317 322 332 336 335 335 336 336 336 336 334 332 332 331 331 327 327
238 245 252 259 264 268 269 270 269 266 264 264 266 271 273 281 292 300 298 310 311 309 304 307 307 306 313 320 325 327 327 327 328 328 330 331 332 333 331 329 328 323 320
226 234 243 252 257 258 258 257 256 254 254 258 264 272 282 291 299 301 302 304 311 309 305 304 302 302 303 304 307 310 314 318 320 323 327 330 330 329 328 326 324 322 319
237 240 241 241 240 236 233 233 235 240 244 253 265 275 284 292 297 303 306 306 308 304 298 297 296 298 296 295 299 303 307 311 315 321 325 328 328 327 327 326 327 327 324
232 233 232 230 225 221 221 224 228 233 242 255 267 277 284 289 291 293 295 298 299 301 296 298 300 299 298 301 303 301 303 308 314 319 323 324 326 329 329 329 327 328 325
233 230 225 221 217 221 227 233 239 246 255 270 279 286 291 294 296 298 298 298 301 304 303 307 305 303 301 302 301 302 305 309 314 314 319 323 327 329 329 328 326 325 322
227 221 218 217 220 229 235 236 236 234 244 268 290 301 304 308 310 310 310 309 309 310 302 304 303 303 302 302 304 306 306 306 306 312 317 322 327 327 326 327 327 325 323
220 216 216 220 223 219 219 227 242 263 288 308 317 316 314 314 312 310 308 306 309 309 305 305 307 306 303 306 304 303 304 304 305 310 316 324 324 323 324 326 327 325 323
214 213 216 214 210 214 222 232 245 262 289 305 308 308 307 311 310 309 309 307 309 309 309 308 307 308 309 307 305 303 304 305 306 310 313 318 321 323 324 325 326 325 324
213 213 211 211 215 219 225 238 254 272 289 299 305 308 310 313 311 308 305 305 308 310 310 310 310 309 308 308 306 302 301 301 302 303 310 316 321 325 325 325 324 325 324
214 212 213 217 221 224 232 243 257 271 286 296 304 309 313 317 319 315 311 307 306 307 308 308 310 310 309 308 306 301 298 298 301 304 310 316 320 321 323 324 324 323 323
216 217 221 224 228 234 245 254 265 277 287 296 304 311 317 323 326 320 312 306 305 306 308 308 310 312 310 305 304 302 300 300 302 305 308 313 319 321 323 322 321 322 323
221 225 227 231 235 241 247 255 264 273 282 290 298 306 311 316 319 320 317 315 313 313 312 312 312 310 309 308 309 308 305 303 303 303 307 311 315 319 321 320 320 323 323
226 229 232 236 240 246 251 257 264 272 281 289 296 301 304 308 313 318 320 316 312 310 309 308 309 310 311 310 306 304 302 301 298 298 303 307 313 319 320 320 321 323 323
233 236 239 242 246 251 255 260 266 271 277 283 289 294 299 304 308 312 313 314 313 310 307 307 308 310 308 307 305 304 301 297 293 296 301 306 313 319 319 320 322 323 321
239 241 244 247 251 255 258 263 269 274 279 282 287 291 296 300 303 305 306 307 308 309 308 306 306 307 306 305 305 303 298 293 292 295 302 304 310 317 320 321 323 325 325
245 247 250 252 256 260 265 269 272 275 279 282 286 290 293 295 297 299 301 302 303 304 307 306 304 304 304 303 305 302 296 291 289 293 301 306 315 321 324 321 318 320 317